P/2024 R2 ( PanSTARRS )

Japanese version
Home page
Updated on September 10, 2024

---------------------------------------------------------------------

* Profile

Discovery Date September 3, 2024
Magnitude 20.7 mag
Discoverer Pan-STARRS 2 telescope (Haleakala)

* Pictures

* Orbital Elements

Epoch 2024 Oct. 17.0 TT = JDT 2460600.5                                         
T 2024 Oct. 1.87664 TT                                  Rudenko                 
q   2.3015013            (2000.0)            P               Q                  
n   0.17775705     Peri.  203.96011     +0.80196057     -0.59448346             
a   3.1326954      Node   193.02434     +0.58150805     +0.79938380             
e   0.2653287      Incl.   15.10441     +0.13677588     +0.08703421             
P   5.54                                                                        
>From 35 observations 2024 Aug. 9-Sept. 7, mean residual 0".5.                   

* Magnitudes Graph

        m1 = 15.2 + 5 log d + 10.0 log r

---------------------------------------------------------------------

The orbital elements are published on M.P.E.C. 2024-R202.
The magnitudes graphs are made with Comet for Windows.

---------------------------------------------------------------------

Copyright(C) Seiichi Yoshida (comet@aerith.net). All rights reserved.